Regional Weather Roundup
Issued by NWS Charleston, SC

Current Version | Previous Version | Graphics & Text | Print | Product List | Glossary On
Versions: 1 2 3 4 5 6 7 8 9 10 11 12 13 14 15 16 17 18 19 20 21 22 23 24 25 26 27 28 29 30 31 32 33 34 35 36 37 38 39 40 41 42 43 44 45 46 47 48 49 50
000 ASUS42 KCHS 210225 RWRCHS REGIONAL WEATHER ROUNDUP NATIONAL WEATHER SERVICE CHARLESTON SC 1000 PM EDT MON OCT 20 2014 NOTE: "FAIR" INDICATES FEW OR NO CLOUDS BELOW 12,000 FEET WITH NO SIGNIFICANT WEATHER AND/OR OBSTRUCTIONS TO VISIBILITY. NOT ALL STATIONS ARE QUALITY CONTROLLED BY THE NATIONAL WEATHER SERVICE. USE DATA WITH CAUTION...ESPECIALLY DEWPOINT OBSERVATIONS. SCZ027-030-031-034>040-042>050-210300- ...SOUTH CAROLINA... CITY SKY/WX TMP DP RH WIND PRES REMARKS N CHARLESTON MOCLDY 68 59 73 CALM 30.02R WATERFRONT PRK N/A 72 N/A N/A CALM N/A FORT JOHNSON NOT AVBL JOHNS ISLAND PTCLDY 64 63 94 CALM 30.02R PINOPOLIS N/A 68 61 77 S2 29.94R MONCKS CORNER FAIR 61 61 100 CALM 30.01S SUMMERVILLE FAIR 61 61 100 CALM 30.02S BEAUFORT MCAS CLOUDY 66 62 87 CALM 30.01R BEAUFORT ARPT MOCLDY 66 64 94 CALM 30.00S HILTON HEAD IS CLOUDY 66 63 88 CALM 30.01S GEORGETOWN NOT AVBL WALTERBORO CLOUDY 63 N/A N/A CALM 30.02S ORANGEBURG MOCLDY 60 56 86 CALM 30.01R BARNWELL FAIR 59 55 88 CALM 30.02R AIKEN FAIR 55 52 88 CALM 30.05S MANNING FAIR 59 N/A N/A CALM 30.01S KINGSTREE NOT AVBL COLUMBIA PTCLDY 57 52 83 SW3 30.01R SUMTER PTCLDY 59 55 88 CALM 29.99S FLORENCE PTCLDY 59 55 87 CALM 30.01R MYRTLE BEACH CLEAR 63 57 82 CALM 30.01S N MYRTLE BEACH CLEAR 59 57 93 CALM 30.01S $$ GAZ063-065-086>088-099>101-113>116-118-119-134-136>141-150-210300- ...GEORGIA... CITY SKY/WX TMP DP RH WIND PRES REMARKS SAVANNAH ARPT CLOUDY 70 62 76 CALM 30.00S HUNTER AAF CLOUDY 67 64 88 E2 29.98S FORT STEWART MOCLDY 66 63 88 CALM 29.98S STATESBORO NOT AVBL SYLVANIA MOCLDY 67 65 93 CALM 30.02S CLAXTON MOCLDY 66 66 100 CALM 30.01R THOMSON CLEAR 55 55 100 CALM 30.06S AUGUSTA-BUSH CLEAR 56 50 80 CALM 30.01R AUGUSTA-DANIEL CLEAR 66 50 56 N5 30.02R SWAINSBORO FAIR 63 59 88 MISG 30.02S VIDALIA CLOUDY 66 61 82 CALM 30.02R ALMA MOCLDY 68 64 87 CALM 29.99S WAYCROSS PTCLDY 68 67 96 CALM 29.99S JESUP FAIR 66 64 94 CALM 29.99S BRUNSWICK MOCLDY 64 63 94 CALM 30.00S SAINT SIMONS PTCLDY 71 66 84 SE3 29.99S $$ SCZ027-028-034-036>038-045-046-048>050-GAZ119-141-210300- ...LAKE AND SUPPLEMENTAL COASTAL OBSERVATIONS... STATION/POSITION TIME TEMP WIND PRES WAVE SWELL AIR SEA DIR/SP/G HT/PER HT/PER/DIR (UTC) (F) (DEG/KT/KT) (MB) (FT/S) (FT/S/D) UPR LAKE MARION NOT AVBL WINYAH BAY 0200 62 310/ 2 1016.0S LAKE MURRAY 0200 61 CALM / 1 1015.9R ACE BASIN NERRS 0200 64 CALM 1016.0S FORT PULASKI 0100 130/ 1/ 2 N/A SAPELO ISLAND NOT AVBL $$ ANZ835-935-AMZ111-154-330-350-352-354-374-450-454-472-210300- ...C-MAN AND BUOY OBSERVATIONS... STATION/POSITION TIME TEMP WIND PRES WAVE SWELL AIR SEA DIR/SP/G HT/PER HT/PER/DIR (UTC) (F) (DEG/KT/KT) (MB) (FT/S) (FT/S/D) FOLLY BEACH CMAN 0200 72 180/ 3/ 3 1016.7R BUOY 41004 0200 76 80 270/ 4/ 6 1015.9R 3/ 9 2/ 9 BUOY 41008 0200 76 76 170/ 10/ 12 1015.8R 2/ 9 2/ 70/ 9 5E ST. MARYS GA 0100 77 N/A 2/ 9 2/ 70/11 FRYING PAN BUOY 0200 76 75 190/ 12/ 16 1016.3F 3/ 8 2/ 70/ 8 BUOY 41025 0200 72 180/ 14/ 19 1017.3S 4/ 8 3/ 70/ 8 CAPE LOOKOUT NC 0200 73 170/ 10/ 11 1016.4F BUOY 41002 0123 74 80 130/ 12/ 16 1018.2S 3/ 8 3/ 70/ 8 BUOY 41010 0200 79 80 170/ 8/ 10 1016.0R 3/10 3/ 70/10 BUOY 41012 NOT AVBL ST AUGUSTINE FL 0200 77 140/ 11/ 12 1016.1R CAPERS NEARSHORE 0100 73 220/ 4/ 6 N/A FRIPP NEARSHORE NOT AVBL $$

USA.gov is the U.S. government's official web portal to all federal, state and local government web resources and services.